Terminal Aerodrome Forecast
Issued by NWS Tuscon, AZ

Home | Current Version | Previous Version | Text Only | Print | Product List | Glossary On
Versions: 1 2 3 4 5 6 7 8 9 10 11 12 13 14
190
FTUS45 KTWC 260520
TAFDUG
TAF
KDUG 260520Z 2606/2706 04006KT P6SM FEW070 BKN100
     FM260700 VRB04KT P6SM SCT100 BKN180
     FM262000 33010KT P6SM SCT070=

USA.gov is the U.S. government's official web portal to all federal, state and local government web resources and services.